Time,TemperatureF,DewpointF,PressureIn,WindDirection,WindDirectionDegrees,WindSpeedMPH,WindSpeedGustMPH,Humidity,HourlyPrecipIn,Conditions,Clouds,dailyrainin,SolarRadiationWatts/m^2,SoftwareType,DateUTC
2013-01-03 00:00:00,41.1,33.1,30.25,NNE,22,2.0,2.0,73,0.00,,,0.00,0,Wunderground v.1.15,2013-01-03 06:00:00,
2013-01-03 00:05:00,41.1,33.1,30.25,NNE,23,2.0,2.0,73,0.00,,,0.00,0,Wunderground v.1.15,2013-01-03 06:05:00,
2013-01-03 00:10:00,41.1,33.1,30.25,NNE,24,1.0,2.0,73,0.00,,,0.00,0,Wunderground v.1.15,2013-01-03 06:10:00,
2013-01-03 00:15:00,41.0,33.0,30.26,NNE,23,0.0,2.0,73,0.00,,,0.00,0,Wunderground v.1.15,2013-01-03 06:15:00,
2013-01-03 00:20:00,40.9,32.9,30.26,NNE,23,1.0,4.0,73,0.00,,,0.00,0,Wunderground v.1.15,2013-01-03 06:20:00,
2013-01-03 00:25:00,40.9,32.9,30.26,NNE,23,2.0,4.0,73,0.00,,,0.00,0,Wunderground v.1.15,2013-01-03 06:25:00,
2013-01-03 00:30:00,40.8,32.8,30.26,NNE,23,2.0,2.0,73,0.00,,,0.00,0,Wunderground v.1.15,2013-01-03 06:30:00,
2013-01-03 00:35:00,40.8,32.8,30.26,NNE,24,1.0,2.0,73,0.00,,,0.00,0,Wunderground v.1.15,2013-01-03 06:35:00,
2013-01-03 00:40:00,40.7,32.7,30.26,NNE,22,1.0,4.0,73,0.00,,,0.00,0,Wunderground v.1.15,2013-01-03 06:40:00,
2013-01-03 00:45:00,40.7,32.7,30.25,NNE,23,1.0,4.0,73,0.00,,,0.00,0,Wunderground v.1.15,2013-01-03 06:45:00,
2013-01-03 00:50:00,40.7,32.7,30.25,NNE,23,1.0,4.0,73,0.00,,,0.00,0,Wunderground v.1.15,2013-01-03 06:50:00,
2013-01-03 01:00:00,40.6,32.6,30.25,NNE,23,1.0,1.0,73,0.00,,,0.00,0,Wunderground v.1.15,2013-01-03 07:00:00,
2013-01-03 01:10:00,40.6,32.6,30.25,NNE,23,2.0,2.0,73,0.00,,,0.00,0,Wunderground v.1.15,2013-01-03 07:10:00,
2013-01-03 01:15:00,40.6,32.6,30.26,NNE,22,0.0,2.0,73,0.00,,,0.00,0,Wunderground v.1.15,2013-01-03 07:15:00,
2013-01-03 20:30:00,44.1,32.3,30.34,ENE,60,6.0,6.0,63,0.00,,,0.00,0,Wunderground v.1.15,2013-01-04 02:30:00,
2013-01-03 20:40:00,44.0,32.2,30.34,NNE,32,7.0,7.0,63,0.00,,,0.00,0,Wunderground v.1.15,2013-01-04 02:40:00,
2013-01-03 20:45:00,44.0,32.2,30.34,NE,37,6.0,7.0,63,0.00,,,0.00,0,Wunderground v.1.15,2013-01-04 02:45:00,
2013-01-03 20:50:00,43.9,32.1,30.34,NE,53,6.0,6.0,63,0.00,,,0.00,0,Wunderground v.1.15,2013-01-04 02:50:00,
2013-01-03 20:55:00,43.9,32.1,30.34,NNE,30,6.0,6.0,63,0.00,,,0.00,0,Wunderground v.1.15,2013-01-04 02:55:00,
2013-01-03 21:00:00,43.9,32.1,30.35,ENE,60,6.0,6.0,63,0.00,,,0.00,0,Wunderground v.1.15,2013-01-04 03:00:00,
2013-01-03 21:05:00,43.9,32.1,30.35,NE,44,5.0,8.0,63,0.00,,,0.00,0,Wunderground v.1.15,2013-01-04 03:05:00,
2013-01-03 21:15:00,43.9,32.5,30.36,NE,37,3.0,5.0,64,0.00,,,0.00,0,Wunderground v.1.15,2013-01-04 03:15:00,
2013-01-03 21:20:00,43.8,32.4,30.36,NE,37,3.0,3.0,64,0.00,,,0.00,0,Wunderground v.1.15,2013-01-04 03:20:00,
2013-01-03 21:25:00,43.8,32.4,30.36,NE,40,4.0,6.0,64,0.00,,,0.00,0,Wunderground v.1.15,2013-01-04 03:25:00,
2013-01-03 21:30:00,43.8,32.4,30.37,NE,40,4.0,4.0,64,0.00,,,0.00,0,Wunderground v.1.15,2013-01-04 03:30:00,
2013-01-03 21:35:00,43.8,32.4,30.37,NE,37,3.0,4.0,64,0.00,,,0.00,0,Wunderground v.1.15,2013-01-04 03:35:00,
2013-01-03 21:40:00,43.8,32.4,30.37,NNE,22,4.0,4.0,64,0.00,,,0.00,0,Wunderground v.1.15,2013-01-04 03:40:00,
2013-01-03 21:45:00,43.8,32.4,30.36,NE,34,4.0,4.0,64,0.00,,,0.00,0,Wunderground v.1.15,2013-01-04 03:45:00,
2013-01-03 21:50:00,43.7,32.3,30.36,NNE,32,3.0,3.0,64,0.00,,,0.00,0,Wunderground v.1.15,2013-01-04 03:50:00,
2013-01-03 21:55:00,43.7,32.3,30.36,NE,39,4.0,9.0,64,0.00,,,0.00,0,Wunderground v.1.15,2013-01-04 03:55:00,
2013-01-03 22:00:00,43.7,32.3,30.34,NE,51,5.0,9.0,64,0.00,,,0.00,0,Wunderground v.1.15,2013-01-04 04:00:00,
2013-01-03 22:05:00,43.7,32.3,30.34,NE,39,6.0,9.0,64,0.00,,,0.00,0,Wunderground v.1.15,2013-01-04 04:05:00,
2013-01-03 22:10:00,43.7,32.3,30.34,NE,38,5.0,5.0,64,0.00,,,0.00,0,Wunderground v.1.15,2013-01-04 04:10:00,
2013-01-03 22:15:00,43.7,32.3,30.34,NE,48,5.0,5.0,64,0.00,,,0.00,0,Wunderground v.1.15,2013-01-04 04:15:00,
2013-01-03 22:25:00,43.7,32.3,30.34,NE,34,4.0,4.0,64,0.00,,,0.00,0,Wunderground v.1.15,2013-01-04 04:25:00,
2013-01-03 22:30:00,43.7,32.7,30.35,NNE,33,2.0,2.0,65,0.00,,,0.00,0,Wunderground v.1.15,2013-01-04 04:30:00,
2013-01-03 22:35:00,43.7,32.7,30.35,NNE,28,1.0,2.0,65,0.00,,,0.00,0,Wunderground v.1.15,2013-01-04 04:35:00,
2013-01-03 22:40:00,43.7,32.7,30.35,NNE,27,1.0,4.0,65,0.00,,,0.00,0,Wunderground v.1.15,2013-01-04 04:40:00,
2013-01-03 22:45:00,43.7,32.7,30.35,NNE,28,1.0,6.0,65,0.00,,,0.00,0,Wunderground v.1.15,2013-01-04 04:45:00,
2013-01-03 22:50:00,43.6,32.6,30.35,NNE,30,2.0,3.0,65,0.00,,,0.00,0,Wunderground v.1.15,2013-01-04 04:50:00,
2013-01-03 22:55:00,43.6,32.6,30.35,NNE,30,2.0,3.0,65,0.00,,,0.00,0,Wunderground v.1.15,2013-01-04 04:55:00,
2013-01-03 23:00:00,43.6,32.6,30.35,NNE,30,1.0,2.0,65,0.00,,,0.00,0,Wunderground v.1.15,2013-01-04 05:00:00,
2013-01-03 23:05:00,43.5,32.5,30.35,NE,36,1.0,5.0,65,0.00,,,0.00,0,Wunderground v.1.15,2013-01-04 05:05:00,
2013-01-03 23:15:00,43.4,32.8,30.35,NE,44,3.0,5.0,66,0.00,,,0.00,0,Wunderground v.1.15,2013-01-04 05:15:00,
2013-01-03 23:20:00,43.4,32.8,30.35,NE,40,4.0,4.0,66,0.00,,,0.00,0,Wunderground v.1.15,2013-01-04 05:20:00,
2013-01-03 23:25:00,43.4,32.8,30.35,NE,34,4.0,4.0,66,0.00,,,0.00,0,Wunderground v.1.15,2013-01-04 05:25:00,
2013-01-03 23:30:00,43.4,32.8,30.35,NNE,33,3.0,6.0,66,0.00,,,0.00,0,Wunderground v.1.15,2013-01-04 05:30:00,
2013-01-03 23:35:00,43.4,32.8,30.35,NNE,15,3.0,6.0,66,0.00,,,0.00,0,Wunderground v.1.15,2013-01-04 05:35:00,
2013-01-03 23:45:00,43.4,32.8,30.35,NNE,16,3.0,5.0,66,0.00,,,0.00,0,Wunderground v.1.15,2013-01-04 05:45:00,
2013-01-03 23:50:00,43.4,32.8,30.35,NNE,20,3.0,3.0,66,0.00,,,0.00,0,Wunderground v.1.15,2013-01-04 05:50:00,
2013-01-03 23:55:00,43.4,32.8,30.35,NNE,26,2.0,3.0,66,0.00,,,0.00,0,Wunderground v.1.15,2013-01-04 05:55:00,